SCP
1 1 1 1 1 1 1 0 0 0 0 0 0 0 0 0 0 0 0 0 0 0 0 0 0 0 0 0 0 0 0 0 0 0 0 0 0 0
1 1 1 1 1 1 1 1 0 0 0 0 0 0 0 0 0 0 0 0 0 0 0 0 0 0 0 0 0 0 0 0 0 0 0 0 0 0
0 1 1 1 1 1 1 1 0 0 0 0 0 0 0 0 0 0 0 0 0 0 0 0 0 0 0 0 0 0 0 0 0 0 0 0 0 0
0 0 0 0 1 1 1 0 0 0 0 0 0 0 0 0 0 0 0 0 0 0 0 0 0 0 0 0 0 0 0 0 0 0 0 0 0 0
0 0 0 0 0 0 0 0 0 0 0 0 0 0 0 0 0 0 0 0 0 0 0 0 0 0 0 0 0 0 0 0 0 0 0 0 0 0
0 0 0 0 0 0 0 0 0 0 0 0 0 0 0 0 0 0 0 0 0 0 0 0 0 0 0 0 0 0 0 0 0 0 0 0 0 0
0 0 0 0 0 0 0 0 0 0 0 0 0 0 0 0 0 0 0 0 0 0 0 0 0 0 0 0 0 0 0 0 0 0 0 0 0 0
0 0 0 0 0 0 0 0 0 0 0 0 0 0 0 0 0 0 0 0 0 0 0 0 0 0 0 0 0 0 0 0 0 0 0 0 0 0
0 0 0 0 0 0 0 0 0 0 0 0 0 0 0 0 0 0 0 0 0 0 0 0 0 0 0 0 0 0 0 0 0 0 0 0 0 0
0 0 0 0 0 0 0 0 0 0 0 0 0 0 0 0 0 0 0 0 0 0 0 0 0 0 0 0 0 0 0 0 0 0 0 0 0 0
0 0 0 0 0 0 0 0 0 0 0 0 0 0 0 0 0 0 0 0 0 0 0 0 0 0 0 0 0 0 0 0 0 0 0 0 0 0
0 0 0 0 0 0 0 0 0 0 0 0 0 0 0 0 0 0 0 0 0 0 0 0 0 0 0 0 0 0 0 0 0 0 0 0 0 0
0 0 0 0 0 0 0 0 0 0 0 0 0 0 0 0 0 0 0 0 0 0 0 0 0 0 0 0 0 0 0 0 0 0 0 0 0 0
0 0 0 0 0 0 0 0 0 0 0 0 0 0 0 0 0 0 0 0 0 0 0 0 0 0 0 0 0 0 0 0 0 0 0 0 0 0
0 0 0 0 0 0 0 0 0 0 0 0 0 0 0 0 0 0 0 0 0 0 0 0 0 0 0 0 0 0 0 0 0 0 0 0 0 0
0 0 0 0 0 0 0 0 0 0 0 0 0 0 0 0 0 0 0 0 0 0 0 0 0 0 0 0 0 0 0 0 0 0 0 0 0 0
0 0 0 0 0 0 0 0 0 0 0 0 0 0 0 0 0 0 0 0 0 0 0 0 0 0 0 0 0 0 0 0 0 0 0 0 0 0
0 0 0 0 0 0 0 0 0 0 0 0 0 0 0 0 0 0 0 0 0 0 0 0 0 0 0 0 0 0 0 0 0 0 0 0 0 0
0 0 0 0 0 0 0 0 0 0 0 0 0 0 0 0 0 0 0 0 0 0 0 0 0 0 0 0 0 0 0 0 0 0 0 0 0 0
0 0 0 0 0 0 0 0 0 0 0 0 0 0 0 0 0 0 0 0 0 0 0 0 0 0 0 0 0 0 0 0 0 0 0 0 0 0
0 0 0 0 0 0 0 0 0 0 0 0 0 0 0 0 0 0 0 0 0 0 0 0 0 0 0 0 0 0 0 0 0 0 0 0 0 0
0 0 0 0 0 0 0 0 0 0 0 0 0 0 0 0 0 0 0 0 0 0 0 0 0 0 0 0 0 0 0 0 0 0 0 0 0 0
0 0 0 0 0 0 0 0 0 0 0 0 0 0 0 0 0 0 0 0 0 0 0 0 0 0 0 0 0 0 0 0 0 0 0 0 0 0
Wind_Speed
6 7 6 4 5 3 2 3 5 4 3 3 3 5 5 4 8 5 6 9 9 8 7 7 6 6 5 5 6 6 6 5 5 5 7 9 10 11
3 4 3 3 2 5 2 1 2 5 5 5 4 5 6 6 8 4 7 12 10 9 7 7 5 4 4 4 4 5 6 5 4 4 5 7 8 10
4 4 3 3 1 5 4 2 2 2 3 3 2 4 6 6 4 3 6 6 5 9 8 7 5 3 2 3 4 6 6 6 5 4 3 5 7 9
5 5 4 3 3 3 5 3 2 2 2 3 3 4 6 7 7 5 5 6 7 11 11 9 7 4 1 1 3 5 5 5 6 7 6 6 8 9
5 5 4 5 4 0 2 1 2 4 4 2 3 3 3 5 7 5 5 3 6 10 11 9 8 7 5 2 1 3 2 4 6 7 7 8 9 9
5 5 5 5 5 3 1 0 1 3 6 5 3 3 3 4 6 5 4 3 3 7 7 8 10 10 8 6 4 2 1 3 4 5 6 7 7 7
6 6 7 8 9 7 4 3 1 2 4 5 4 3 4 4 6 5 5 4 5 4 4 4 5 4 5 7 7 5 4 4 5 5 6 6 6 6
8 8 8 10 13 14 12 8 7 6 6 5 5 5 8 7 5 5 5 5 4 5 5 5 6 5 6 6 10 10 7 7 6 6 5 5 5 5
9 9 9 10 12 8 11 14 13 15 14 7 6 7 7 8 8 7 6 6 5 5 5 4 5 5 5 7 17 15 12 9 8 6 5 3 2 2
5 5 7 8 10 10 8 7 8 9 10 8 6 5 5 6 10 9 8 6 4 3 5 4 4 4 3 5 14 15 12 10 8 7 5 3 3 3
6 6 5 5 12 15 8 6 4 3 2 4 5 3 3 2 4 6 6 5 4 3 4 4 4 3 3 4 8 14 12 11 9 9 8 6 5 5
5 4 5 3 5 11 6 4 2 1 2 3 3 2 1 1 2 5 6 6 4 4 5 4 3 4 3 3 4 6 6 9 10 10 9 8 7 4
3 2 2 9 10 8 3 3 4 2 2 2 2 1 1 1 2 2 2 3 4 3 5 7 4 4 4 3 3 5 6 5 5 6 9 10 10 7
4 2 4 9 9 7 4 6 5 2 2 2 1 1 1 1 1 1 2 2 2 0 2 6 4 5 5 4 3 4 6 6 6 6 6 10 11 11
1 5 9 8 7 5 6 6 3 1 1 1 1 1 1 1 2 1 2 2 1 1 2 0 1 2 4 4 4 4 4 5 6 6 7 7 6 5
3 7 9 6 3 6 6 2 1 1 2 1 1 1 1 1 1 1 1 1 1 1 2 2 2 1 1 2 2 4 5 5 5 6 6 6 7 7
1 3 3 3 3 3 3 2 2 2 1 1 1 1 1 2 2 1 1 2 2 2 2 2 1 1 1 1 2 3 3 4 4 6 5 5 5 7
2 1 2 3 3 4 3 2 1 1 2 2 2 2 2 2 2 2 2 2 3 3 3 3 3 2 1 2 5 4 3 4 4 5 6 5 6 5
1 1 1 2 2 3 2 2 1 2 2 2 2 2 2 2 2 2 3 3 3 4 3 3 4 5 6 6 5 11 8 6 5 5 6 6 6 5
2 3 3 3 3 3 2 1 1 1 0 0 1 1 2 2 1 2 2 3 3 4 4 4 5 7 8 6 4 4 13 9 7 7 6 5 4 3
3 3 3 3 3 3 2 2 1 1 1 1 1 1 1 2 2 3 3 4 4 4 5 5 6 9 5 2 3 3 3 8 5 3 4 5 5 4
3 4 4 4 3 3 3 2 2 2 2 1 2 2 1 1 2 3 3 3 3 3 4 4 2 3 4 6 7 5 3 2 4 7 6 4 4 4
4 3 3 3 3 3 3 3 3 3 3 3 3 2 1 1 2 2 3 3 2 3 4 3 2 2 3 4 5 4 4 4 3 4 3 5 8 9
Wind_Direction
213 202 198 225 289 275 196 156 149 160 188 172 162 172 164 138 165 186 161 161 154 143 123 104 87 68 56 48 42 32 18 7 11 21 26 28 26 24
221 210 202 170 257 287 280 222 152 157 182 191 178 165 158 158 179 219 145 161 160 159 146 129 108 80 59 50 39 22 4 351 359 13 32 35 34 33
206 190 169 136 157 276 278 262 251 193 183 193 157 156 148 163 159 173 154 166 171 173 168 159 141 106 50 29 19 7 360 354 358 12 42 51 40 34
179 170 155 130 96 286 275 270 277 293 230 178 156 167 171 171 163 190 175 193 170 184 182 180 174 170 185 0 1 358 6 30 42 42 59 58 46 39
164 160 147 124 114 170 301 314 349 316 301 232 180 177 184 172 162 183 184 217 171 174 186 192 192 192 203 225 304 344 26 77 67 55 54 57 47 43
183 182 175 159 157 172 196 93 22 312 285 260 202 181 197 182 165 171 192 205 198 174 187 185 196 199 205 215 235 255 162 122 102 81 66 61 54 50
202 206 205 201 196 198 197 181 175 273 276 256 221 186 193 187 190 177 190 187 207 188 165 175 174 189 201 216 222 217 177 150 133 110 85 69 64 69
214 218 218 219 220 220 223 220 217 232 244 245 225 201 204 199 186 182 182 179 207 197 168 188 177 193 196 194 200 194 181 165 148 127 103 82 69 70
212 210 212 214 215 222 229 231 235 237 233 233 236 225 207 195 186 191 192 195 205 189 167 194 183 198 196 189 179 181 182 177 168 155 140 128 117 93
234 213 203 200 200 205 213 221 228 233 230 224 232 244 234 202 190 196 194 195 213 186 150 179 181 192 171 152 175 179 183 184 185 186 188 183 178 180
249 233 226 216 198 195 203 221 225 225 174 143 119 94 44 304 209 175 170 168 194 198 174 176 176 172 175 166 186 188 186 188 192 201 209 208 206 204
254 238 214 173 149 178 193 202 205 202 135 125 117 128 170 215 189 175 173 179 180 182 188 182 171 149 183 192 167 180 193 199 199 204 214 213 211 209
275 247 150 140 134 141 133 106 122 100 101 116 131 149 172 232 218 192 160 177 179 197 185 178 180 162 172 178 173 178 189 192 191 207 215 218 216 209
286 257 129 140 138 134 118 117 108 86 118 140 159 170 183 205 222 140 109 72 85 30 257 179 182 172 172 157 194 185 190 192 184 195 201 212 219 225
311 118 127 136 130 115 111 117 128 165 139 156 160 162 176 167 144 116 102 94 61 345 335 301 212 186 179 190 182 172 181 201 189 190 196 193 197 198
125 115 125 138 133 122 129 147 206 164 145 176 179 164 146 151 180 165 156 142 183 260 255 281 340 22 222 225 191 185 181 191 192 193 194 195 195 196
96 145 151 159 158 134 127 118 103 117 151 203 181 166 177 199 217 195 183 182 202 224 220 199 176 101 120 175 226 224 205 209 192 183 191 207 209 198
22 232 190 172 160 146 144 149 176 233 229 216 213 206 204 207 208 195 201 215 232 233 228 199 172 173 237 257 207 217 224 225 213 191 193 205 228 224
38 1 42 74 84 103 126 151 202 227 221 217 219 225 215 210 213 217 217 229 243 244 232 209 194 199 222 239 234 205 215 221 212 204 204 206 220 225
83 83 74 66 65 65 70 59 3 351 11 305 289 263 200 185 217 247 242 241 251 252 246 222 210 212 224 233 227 223 207 209 208 212 210 208 221 209
78 75 72 67 59 53 47 31 359 342 332 327 304 286 260 211 223 241 254 263 265 266 264 251 236 224 227 218 241 243 227 214 207 196 199 191 196 196
58 66 64 56 43 33 21 3 344 340 340 332 305 290 281 267 257 258 252 251 250 255 268 273 269 208 203 223 240 243 212 171 150 114 83 97 144 175
43 56 59 55 42 34 25 12 10 6 4 354 340 316 288 271 269 271 273 266 266 277 287 285 274 246 236 240 250 246 202 169 156 153 118 99 99 93